[[{"header":{"parameterUnit":"m.s-1","parameterCategory":1,"la1":30.2991,"la2":30.254,"lo1":-89.0895,"lo2":-89.0444,"dy":0.0017,"dx":0.0017,"nx":28,"ny":28,"refTime":"2024-12-23T03:00:00:Z","depth":0,"parameterNumber":2,"parameterNumberName":"U-component_of_WINDS"},"data":[0,0,0,0,0,0,0,0,0,0,0,0,0,0,0,0,0,0,0,0,0,0,0,0,0,0,0,0,0,0,0,0,0,0,0,0,0,0,0,0,0,0,0,0,0,0,0,0,0,0,0,0,0,0,0,0,0,0,-4.1898,-4.19,0,-4.2035,-4.2037,-4.2038,-4.1924,-4.192,-4.1915,-4.191,-4.2056,-4.2064,-4.2073,0,0,0,0,0,0,0,0,0,0,0,0,0,-4.1545,-4.1552,-4.1898,-4.19,-4.1902,-4.2035,-4.2037,-4.2039,-4.1925,-4.1919,-4.1914,-4.1908,-4.2053,-4.2063,-4.2073,0,0,0,0,0,0,0,0,0,0,0,0,0,-4.1692,-4.1554,-4.1898,-4.1861,-4.1859,-4.2035,-4.2037,-4.2039,-4.1926,-4.1919,-4.1912,-4.1905,-4.205,-4.2062,-4.2075,-4.2296,0,0,-4.2113,-4.2118,0,0,0,0,0,0,0,0,-4.1684,-4.1705,-4.1865,-4.1864,-4.1862,-4.1955,-4.1965,-4.2125,-4.1928,-4.1901,-4.191,-4.1902,-4.2029,-4.2043,-4.2084,-4.2302,-4.2309,-4.2114,-4.2122,-4.2127,-4.2131,0,0,0,0,0,0,0,-4.1673,-4.1698,-4.1953,-4.1867,-4.1866,-4.184,-4.1852,-4.1995,-4.2004,-4.1903,-4.1895,-4.1912,-4.2027,-4.2072,-4.2087,-4.2311,-4.2114,-4.2125,-4.2133,-4.2137,-4.2719,-4.2726,0,0,0,0,0,0,-4.1666,-4.1691,-4.1948,-4.1957,-4.1753,-4.1852,-4.1866,-4.1933,-4.2002,-4.2005,-4.1918,-4.1907,-4.2055,-4.2072,-4.2092,-4.2355,-4.2127,-4.2139,-4.2146,-4.2711,-4.272,-4.2729,0,0,0,0,0,0,-4.1659,-4.169,-4.1943,-4.1822,-4.1852,-4.1865,-4.1941,-4.1939,-4.1985,-4.2013,-4.2015,-4.1963,-4.205,-4.2074,-4.2246,-4.2359,-4.2144,-4.2156,-4.2702,-4.2714,-4.2725,-4.2884,0,0,0,0,0,0,-4.1649,-4.1688,-4.1771,-4.1824,-4.1858,-4.2093,-4.1948,-4.1947,-4.2006,-4.1992,-4.2056,-4.206,-4.2046,-4.2228,-4.2258,-4.2372,-4.2165,-4.2691,-4.2707,-4.2721,-4.2869,-4.29,-4.2927,0,0,0,0,0,-4.1637,-4.1811,-4.1776,-4.1807,-4.1962,-4.21,-4.212,-4.2099,-4.2015,-4.21,-4.2118,-4.2058,-4.2341,-4.2246,-4.2279,-4.2399,-4.2684,-4.2703,-4.272,-4.2856,-4.2894,-4.2926,0,0,0,0,0,0,-4.1773,-4.1818,-4.1778,-4.1975,-4.2034,-4.208,-4.2185,-4.2139,-4.2225,-4.2208,-4.218,-4.2196,-4.2377,-4.2405,-4.2298,-4.2617,-4.25,-4.2525,-4.2592,-4.2628,-4.2657,-4.2646,-4.2176,0,0,0,0,0,-4.1825,-4.1932,-4.1966,-4.2136,-4.2168,-4.2172,-4.2231,-4.221,-4.2271,-4.2296,-4.2327,-4.2391,-4.2494,-4.2563,-4.2659,-4.2873,-4.2886,-4.2972,-4.3,-4.3024,-4.3046,-4.3162,-4.3201,-4.2788,-4.2787,-4.2787,0,0,-4.1935,-4.1973,-4.2042,-4.2164,-4.2208,-4.232,-4.2194,-4.2318,-4.2402,-4.2316,-4.2479,-4.2505,-4.2574,-4.2767,-4.2854,-4.2796,-4.3164,-4.3047,-4.3065,-4.3075,-4.3185,-4.3224,-4.3259,-4.28,-4.2798,-4.2796,0,0,-4.2193,-4.2232,-4.2378,-4.2424,-4.2491,-4.2493,-4.2528,-4.2582,-4.2595,-4.2758,-4.2696,-4.2797,-4.2975,-4.3027,-4.3076,-4.3356,-4.3304,-4.3388,-4.354,-4.3653,-4.3686,-4.3714,-4.3815,-4.3851,-4.3411,-4.3411,-4.3411,0,-4.2322,-4.2487,-4.246,-4.2589,-4.2645,-4.257,-4.2719,-4.2766,-4.2862,-4.2904,-4.2837,-4.306,-4.3101,-4.3306,-4.3375,-4.3417,-4.3458,-4.3381,-4.3683,-4.3711,-4.3738,-4.3833,-4.3871,-4.3421,-4.342,-4.3419,-4.3418,0,-4.2643,-4.2759,-4.2869,-4.2962,-4.3031,-4.317,-4.3165,-4.3238,-4.3212,-4.3221,-4.339,-4.3437,-4.3542,-4.3589,-4.3565,-4.3792,-4.3754,-4.3686,-4.3567,-4.3788,-4.3877,-4.3913,-4.3435,-4.3431,-4.3428,-4.3426,0,0,-4.2989,-4.3065,-4.3106,-4.3148,-4.3217,-4.3307,-4.3443,-4.3544,-4.3608,-4.3678,-4.3792,-4.3946,-4.3883,-4.394,-4.3921,-4.4021,-4.424,-4.3941,-4.3942,-4.3995,-4.4494,-4.4545,-4.4588,-4.4206,-4.4213,-4.4218,-4.4489,0,-4.325,-4.3484,-4.3464,-4.3687,-4.3795,-4.3726,-4.3845,-4.3902,-4.3915,-4.401,-4.4025,-4.4134,-4.4043,-4.4077,-4.4173,-4.4193,-4.434,-4.4173,-4.4314,-4.4319,-4.4298,-4.4634,-4.4688,-4.494,-4.4523,-4.4529,-4.4533,0,-4.3585,-4.3664,-4.3898,-4.3951,-4.3996,-4.4103,-4.4194,-4.4286,-4.4349,-4.4352,-4.4416,-4.4381,-4.452,-4.4399,-4.4591,-4.4478,-4.4535,-4.4554,-4.4563,-4.4576,-4.4439,-4.4656,-4.502,-4.5059,-4.4588,-4.4584,-4.458,0,-4.3814,-4.398,-4.4141,-4.4179,-4.4245,-4.4323,-4.4354,-4.441,-4.4473,-4.4554,-4.4595,-4.4692,-4.4746,-4.4823,-4.4815,-4.4727,-4.5012,-4.4889,-4.5019,-4.502,-4.5082,-4.5078,-4.5461,-4.5119,-4.5118,-4.5118,-4.5117,0,-4.4107,-4.4253,-4.4245,-4.4344,-4.4506,-4.4483,-4.4645,-4.4668,-4.4719,-4.4823,-4.477,-4.4869,-4.4853,-4.4954,-4.4949,-4.511,-4.5135,-4.5142,-4.5139,-4.5147,-4.5146,-4.5183,-4.5166,-4.5128,-4.5125,-4.5123,-4.5122,0,-4.4391,-4.4391,-4.4562,-4.4611,-4.4627,-4.4744,-4.4787,-4.4882,-4.4891,-4.5023,-4.5053,-4.5068,-4.5183,-4.5184,-4.5316,-4.5313,-4.551,-4.5487,-4.5488,-4.5483,-4.5613,-4.5601,-4.6034,-4.6089,-4.5711,-4.5715,-4.5718,0,-4.4577,-4.4688,-4.4748,-4.4813,-4.4849,-4.4955,-4.5018,-4.5001,-4.5069,-4.5151,-4.5237,-4.5346,-4.5433,-4.5621,-4.5645,-4.5746,-4.5725,-4.587,-4.574,-4.5745,-4.5728,-4.5721,-4.5733,-4.5895,-4.59,-4.5903,-4.5906,0,-4.4909,-4.4904,-4.4996,-4.509,-4.5167,-4.524,-4.5307,-4.5364,-4.5354,-4.5434,-4.555,-4.5618,-4.5752,-4.5863,-4.5961,-4.5995,-4.5951,-4.5947,-4.5982,-4.5991,-4.5987,-4.5991,-4.5557,-4.5937,-4.5934,-4.5931,-4.593,-4.5928,-4.515,-4.5245,-4.5303,-4.5408,-4.5456,-4.5521,-4.5612,-4.5633,-4.5729,-4.5836,-4.582,-4.595,-4.6013,-4.6139,-4.6183,-4.6286,-4.6235,-4.6286,-4.6299,-4.6312,-4.6327,-4.5971,-4.6303,-4.6303,-4.6302,-4.6301,-4.63,0,-4.5479,-4.5513,-4.561,-4.5705,-4.5789,-4.5737,-4.581,-4.5883,-4.5998,-4.6059,-4.6145,-4.628,-4.6387,-4.642,-4.6524,-4.66,-4.6583,-4.6629,-4.6623,-4.6632,-4.6366,-4.6324,-4.6641,-4.6641,-4.6641,-4.6641,-4.6641,-4.6641,-4.566,-4.5818,-4.5821,-4.6003,-4.6036,-4.6162,-4.6208,-4.6268,-4.6317,-4.6469,-4.6557,-4.6577,-4.6628,-4.6735,-4.6832,-4.6839,-4.688,-4.6935,-4.6934,-4.6684,-4.665,-4.6618,-4.6579,-4.6944,-4.6944,-4.7191,-4.7193,-4.7195]},{"header":{"parameterUnit":"m.s-1","parameterCategory":1,"la1":30.2991,"la2":30.254,"lo1":-89.0895,"lo2":-89.0444,"dy":0.0017,"dx":0.0017,"nx":28,"ny":28,"refTime":"2024-12-23T03:00:00:Z","depth":0,"parameterNumber":3,"parameterNumberName":"V-component_of_WINDS"},"data":[0,0,0,0,0,0,0,0,0,0,0,0,0,0,0,0,0,0,0,0,0,0,0,0,0,0,0,0,0,0,0,0,0,0,0,0,0,0,0,0,0,0,0,0,0,0,0,0,0,0,0,0,0,0,0,0,0,0,1.2212,1.2212,0,1.2173,1.2172,1.2172,1.2182,1.2182,1.2183,1.2184,1.2137,1.2135,1.2133,0,0,0,0,0,0,0,0,0,0,0,0,0,1.229,1.2289,1.2212,1.2212,1.2211,1.2173,1.2172,1.2172,1.2181,1.2182,1.2183,1.2184,1.2137,1.2135,1.2132,0,0,0,0,0,0,0,0,0,0,0,0,0,1.2254,1.2288,1.2212,1.2212,1.2211,1.2173,1.2172,1.2172,1.2181,1.2182,1.2184,1.2185,1.2138,1.2135,1.2132,1.209,0,0,1.2123,1.2122,0,0,0,0,0,0,0,0,1.2256,1.2251,1.2212,1.2212,1.2211,1.2184,1.2182,1.2144,1.2181,1.2192,1.2184,1.2185,1.2151,1.2147,1.2137,1.2088,1.2086,1.2123,1.2121,1.212,1.2119,0,0,0,0,0,0,0,1.2258,1.2253,1.2196,1.2212,1.2211,1.2211,1.2208,1.2175,1.2165,1.2192,1.2192,1.2188,1.2151,1.2139,1.2135,1.2085,1.2123,1.212,1.2118,1.2117,1.1998,1.1997,0,0,0,0,0,0,1.2262,1.2255,1.2198,1.2195,1.2237,1.2209,1.2205,1.2191,1.2166,1.2163,1.2187,1.2188,1.2144,1.2139,1.2134,1.2082,1.212,1.2117,1.2115,1.2,1.1998,1.1997,0,0,0,0,0,0,1.2264,1.2257,1.2199,1.2225,1.2218,1.2207,1.2191,1.219,1.2178,1.2162,1.216,1.2178,1.2145,1.2138,1.2101,1.208,1.2115,1.2113,1.2001,1.1999,1.1997,1.1978,0,0,0,0,0,0,1.2266,1.2258,1.2243,1.2225,1.2217,1.2169,1.219,1.2188,1.2174,1.2176,1.2153,1.215,1.2145,1.2105,1.2098,1.2077,1.211,1.2003,1.2,1.1998,1.198,1.1975,1.1971,0,0,0,0,0,1.2269,1.2237,1.2242,1.2235,1.2198,1.2168,1.2163,1.2159,1.2172,1.2156,1.2146,1.2151,1.2084,1.2102,1.2093,1.2071,1.2004,1.2001,1.1998,1.1982,1.1976,1.1971,0,0,0,0,0,0,1.225,1.2235,1.224,1.2202,1.2186,1.2169,1.2149,1.2153,1.2132,1.2134,1.2129,1.2124,1.2086,1.2075,1.2094,1.2028,1.2046,1.2041,1.2036,1.2031,1.2026,1.2029,1.2108,0,0,0,0,0,1.2243,1.2221,1.2208,1.2176,1.2168,1.216,1.2147,1.2146,1.2128,1.2121,1.2108,1.2089,1.2064,1.2047,1.2023,1.198,1.1973,1.196,1.1955,1.1952,1.1947,1.1922,1.1915,1.1987,1.1987,1.1987,0,0,1.2225,1.2214,1.22,1.2172,1.216,1.2136,1.2154,1.2128,1.2109,1.2116,1.2081,1.2071,1.2049,1.2009,1.199,1.1998,1.1926,1.1948,1.1945,1.1942,1.1918,1.1911,1.1905,1.1985,1.1985,1.1985,0,0,1.218,1.217,1.2142,1.213,1.2112,1.2108,1.2101,1.2084,1.2078,1.2043,1.2047,1.2025,1.1982,1.1966,1.1952,1.1903,1.1906,1.1895,1.1871,1.1846,1.1841,1.1835,1.1816,1.1809,1.1891,1.1891,1.1891,0,1.2159,1.2125,1.2126,1.21,1.2087,1.2096,1.2066,1.2053,1.2027,1.2017,1.2028,1.1974,1.196,1.1916,1.1904,1.1893,1.1884,1.1897,1.1842,1.1837,1.1832,1.1813,1.1806,1.189,1.189,1.189,1.189,0,1.21,1.2076,1.2056,1.2033,1.2018,1.199,1.1985,1.1969,1.197,1.1964,1.1927,1.1911,1.1884,1.1874,1.1874,1.1829,1.1834,1.1844,1.1861,1.1824,1.1806,1.1799,1.1888,1.1888,1.1888,1.1889,0,0,1.204,1.202,1.2012,1.2002,1.1984,1.1964,1.1937,1.1912,1.1898,1.188,1.1855,1.182,1.1828,1.1813,1.1811,1.179,1.175,1.1802,1.1801,1.1791,1.1698,1.1689,1.1681,1.1753,1.1752,1.1751,1.1699,0,1.1992,1.1945,1.1946,1.1901,1.1879,1.1887,1.1862,1.1847,1.1841,1.1819,1.1811,1.1785,1.18,1.179,1.177,1.1759,1.1731,1.1763,1.1727,1.1726,1.173,1.1672,1.1663,1.1615,1.1692,1.1691,1.169,0,1.1929,1.1912,1.1866,1.1851,1.1842,1.182,1.1798,1.1778,1.176,1.1757,1.1741,1.1743,1.1712,1.1733,1.1689,1.1711,1.1697,1.1689,1.1687,1.1681,1.1704,1.1663,1.1599,1.1591,1.168,1.1681,1.1681,0,1.1888,1.1853,1.1821,1.1812,1.1795,1.1779,1.177,1.1755,1.174,1.172,1.171,1.1686,1.1672,1.1653,1.1648,1.1663,1.1604,1.1624,1.1598,1.1598,1.1582,1.1583,1.1513,1.1577,1.1577,1.1577,1.1577,0,1.1833,1.1803,1.1802,1.1782,1.1749,1.175,1.1717,1.1709,1.1696,1.1673,1.1679,1.1656,1.1652,1.1628,1.1624,1.1587,1.1582,1.1576,1.1575,1.1574,1.1575,1.1563,1.1565,1.1575,1.1576,1.1576,1.1576,0,1.1779,1.1778,1.1743,1.173,1.1726,1.1703,1.1691,1.167,1.1666,1.1636,1.1629,1.1621,1.1593,1.1587,1.1554,1.1551,1.1507,1.151,1.1513,1.1513,1.1486,1.1488,1.1404,1.1392,1.1466,1.1465,1.1465,0,1.1743,1.1721,1.1707,1.1694,1.1685,1.1663,1.1649,1.1649,1.1633,1.1613,1.1594,1.1568,1.1547,1.1502,1.1491,1.1466,1.1467,1.144,1.1463,1.1463,1.1464,1.1464,1.1461,1.1434,1.1433,1.1433,1.1432,0,1.1679,1.1679,1.166,1.164,1.1624,1.1608,1.1592,1.158,1.1578,1.156,1.1533,1.1517,1.1485,1.1457,1.1432,1.1421,1.1425,1.1426,1.1418,1.1415,1.1417,1.1414,1.1499,1.1426,1.1427,1.1427,1.1428,1.1428,1.1631,1.1612,1.1599,1.1577,1.1567,1.1552,1.1533,1.1527,1.1505,1.148,1.1481,1.1451,1.1434,1.1401,1.1389,1.1364,1.1372,1.1361,1.1358,1.1354,1.1351,1.1424,1.136,1.136,1.136,1.136,1.136,0,1.1565,1.1558,1.1538,1.1518,1.15,1.1509,1.1493,1.1476,1.1451,1.1436,1.1416,1.1385,1.1359,1.1347,1.1321,1.1304,1.1305,1.1296,1.1296,1.1293,1.1346,1.1355,1.1296,1.1296,1.1296,1.1296,1.1296,1.1296,1.1528,1.1496,1.1495,1.1457,1.145,1.1423,1.1412,1.1398,1.1387,1.1352,1.1332,1.1326,1.1311,1.1284,1.126,1.1258,1.1246,1.1237,1.1234,1.1283,1.129,1.1296,1.1304,1.1235,1.1235,1.1183,1.1182,1.1182]}]]